Tracking 30918 objects as of 2-Jul-2025
HD Live streaming from Space Station
objects crossing your sky now

STARLINK-30380

Track STARLINK-30380 now!
10-day predictions
STARLINK-30380 is classified as:


NORAD ID: 57780
Int'l Code: 2023-134K
Perigee: 565.6 km
Apogee: 566.8 km
Inclination: 43.0 °
Period: 95.8 minutes
Semi major axis: 6937 km
RCS: Unknown
Launch date: September 4, 2023
Source: United States (US)
Launch site: AIR FORCE EASTERN TEST RANGE (AFETR)
Your satellite tracking list
STARLINK-3584
Track 1 satellite(s)




NASA's NSSDC Master Catalog

Two Line Element Set (TLE):
1 57780U 23134K   25182.80076738 -.00001444  00000-0 -91863-4 0  9993
2 57780  43.0057 120.5387 0000889 308.4070  51.6693 15.02541213101737
Source of the keplerian elements: AFSPC